Zurück zum Katalog

NIMBUS 2 DEB

LostSSO
NORAD 28616·DEBRIS·🇺🇸 United States

Gestartet May 15, 1966 von Vandenberg Space Force Base

Loading…

Nächste Überflüge (nächste 24 Stunden)

TLE

VeraltetSource: Space-Track

Epoche: Dec 20, 2008, 22:15 UTC

1 28616U 66040AF  08355.92752535  .00000019  00000-0  10000-3 0  9992
2 28616 100.2499  39.3599 0051702 304.3368  55.3471 13.53430836231715

Verfolge NIMBUS 2 DEB in Echtzeit mit AllMySat

Download on the App Store